No particular awareness of the weather is required.    There are no Weather-warnings


Meteo18 Weather Cam more information Meteo18 Weather Cam


Thunder radar more information blitzortung!


Rain radar more information rain snow radar


Visit our other weather sites:

Template documentation
and downloads

And another site



Weather Underground History page Text

Daily Summary for February 21, 2017 Units:  English    Metric   Both
« Previous Day
Next Day »
Daily Weekly Monthly Yearly Custom
  High: Low: Average:
Temperature: TemperatureC °F 8.7 °F 9.9 °F
Dew Point: DewpointC °F 8.3 °F 9.1 °F
Humidity: Humidity % 91 % 94 %
Wind Speed: WindSpeedKMH mph 0.0 mph 8.1 mph
Wind Gust: WindSpeedGustKMH mph - -
Wind:- - WSW
Pressure: PressurehPa in 1023.2 in -
Precipitation: 0.0 in    
Historical Graphs
 
 
Tabular Data for February 21, 2017
Time Temperature Dew Point Pressure Wind Wind Speed Wind Gust Humidity Rainfall Rate (Hourly)
TemperatureC °F DewpointC °F PressurehPa in Calm     Humidity % HourlyPrecipMM in
00:02 8.7 °F 8.3 °F 1024.9 in SW 4.8 mph 11.3 mph 97 % 0.0 in
00:07 8.8 °F 8.3 °F 1024.9 in SSW 6.4 mph 19.3 mph 97 % 0.0 in
00:12 8.8 °F 8.3 °F 1025.3 in SW 8.0 mph 19.3 mph 97 % 0.0 in
00:17 8.8 °F 8.3 °F 1024.9 in WSW 6.4 mph 19.3 mph 97 % 0.0 in
00:22 8.8 °F 8.3 °F 1025.3 in SW 1.6 mph 19.3 mph 97 % 0.0 in
00:27 8.8 °F 8.3 °F 1025.3 in SSW 8.0 mph 19.3 mph 97 % 0.0 in
00:32 8.9 °F 8.4 °F 1024.9 in SSW 4.8 mph 16.1 mph 97 % 0.0 in
00:37 8.9 °F 8.4 °F 1024.9 in SW 8.0 mph 16.1 mph 97 % 0.0 in
00:42 8.9 °F 8.4 °F 1024.9 in SW 4.8 mph 17.7 mph 97 % 0.0 in
00:47 8.9 °F 8.4 °F 1025.3 in SW 9.7 mph 17.7 mph 97 % 0.0 in
00:52 8.9 °F 8.4 °F 1025.3 in SW 3.2 mph 17.7 mph 97 % 0.0 in
00:57 9.0 °F 8.5 °F 1025.3 in WSW 8.0 mph 16.1 mph 97 % 0.0 in
01:02 9.0 °F 8.5 °F 1024.9 in SSW 4.8 mph 16.1 mph 97 % 0.0 in
01:07 9.0 °F 8.5 °F 1024.9 in SW 8.0 mph 17.7 mph 97 % 0.0 in
01:12 9.1 °F 8.6 °F 1024.9 in SSW 6.4 mph 17.7 mph 97 % 0.0 in
01:17 9.1 °F 8.6 °F 1024.9 in SSW 6.4 mph 20.9 mph 97 % 0.0 in
01:22 9.1 °F 8.6 °F 1024.9 in SSW 6.4 mph 20.9 mph 97 % 0.0 in
01:32 9.1 °F 8.6 °F 1024.9 in SW 14.5 mph 20.9 mph 97 % 0.0 in
01:37 9.1 °F 8.6 °F 1024.9 in SW 4.8 mph 19.3 mph 97 % 0.0 in
01:42 9.2 °F 8.7 °F 1024.9 in SW 4.8 mph 19.3 mph 97 % 0.0 in
01:47 9.2 °F 8.7 °F 1024.9 in SW 16.1 mph 19.3 mph 97 % 0.0 in
01:52 9.2 °F 8.7 °F 1024.9 in WSW 4.8 mph 19.3 mph 97 % 0.0 in
01:57 9.2 °F 8.7 °F 1024.6 in SW 6.4 mph 19.3 mph 97 % 0.0 in
02:02 9.2 °F 8.7 °F 1024.6 in SSW 6.4 mph 19.3 mph 97 % 0.0 in
02:07 9.2 °F 8.7 °F 1024.6 in SW 12.9 mph 22.5 mph 97 % 0.0 in
02:12 9.2 °F 8.7 °F 1024.6 in SW 3.2 mph 22.5 mph 97 % 0.0 in
02:17 9.2 °F 8.7 °F 1024.6 in WSW 6.4 mph 20.9 mph 97 % 0.0 in
02:22 9.2 °F 8.7 °F 1024.6 in SW 17.7 mph 20.9 mph 97 % 0.0 in
02:32 9.2 °F 8.7 °F 1024.6 in SW 6.4 mph 22.5 mph 97 % 0.0 in
02:37 9.2 °F 8.7 °F 1024.6 in SW 4.8 mph 22.5 mph 97 % 0.0 in
02:42 9.2 °F 8.7 °F 1024.6 in West 11.3 mph 20.9 mph 97 % 0.0 in
02:47 9.2 °F 8.7 °F 1024.6 in SW 11.3 mph 24.1 mph 97 % 0.0 in
02:52 9.2 °F 8.7 °F 1024.6 in SW 6.4 mph 24.1 mph 97 % 0.0 in
02:57 9.2 °F 8.7 °F 1024.3 in WSW 11.3 mph 24.1 mph 97 % 0.0 in
03:02 9.2 °F 8.7 °F 1024.3 in WSW 11.3 mph 24.1 mph 97 % 0.0 in
03:07 9.2 °F 8.7 °F 1024.3 in WSW 6.4 mph 24.1 mph 97 % 0.0 in
03:12 9.2 °F 8.7 °F 1024.3 in SSW 8.0 mph 24.1 mph 97 % 0.0 in
03:17 9.2 °F 8.7 °F 1024.3 in WSW 6.4 mph 25.7 mph 97 % 0.0 in
03:22 9.2 °F 8.7 °F 1024.3 in West 6.4 mph 25.7 mph 97 % 0.0 in
03:32 9.2 °F 8.7 °F 1024.3 in West 9.7 mph 20.9 mph 97 % 0.0 in
03:37 9.2 °F 8.7 °F 1024.3 in WSW 8.0 mph 22.5 mph 97 % 0.0 in
03:42 9.2 °F 8.7 °F 1024.3 in SW 6.4 mph 22.5 mph 97 % 0.0 in
03:47 9.2 °F 8.7 °F 1023.9 in WSW 3.2 mph 24.1 mph 97 % 0.0 in
03:52 9.1 °F 8.6 °F 1023.9 in West 9.7 mph 24.1 mph 97 % 0.0 in
03:57 9.1 °F 8.6 °F 1023.9 in SSW 4.8 mph 22.5 mph 97 % 0.0 in
04:02 9.1 °F 8.6 °F 1023.9 in West 14.5 mph 22.5 mph 97 % 0.0 in
04:07 9.1 °F 8.6 °F 1023.9 in WSW 14.5 mph 24.1 mph 97 % 0.0 in
04:12 9.1 °F 8.6 °F 1023.9 in WSW 14.5 mph 24.1 mph 97 % 0.0 in
04:17 9.1 °F 8.6 °F 1023.9 in West 14.5 mph 24.1 mph 97 % 0.0 in
04:22 9.1 °F 8.6 °F 1023.9 in WSW 9.7 mph 24.1 mph 97 % 0.0 in
04:32 9.1 °F 8.6 °F 1023.9 in WSW 11.3 mph 22.5 mph 97 % 0.0 in
04:37 9.1 °F 8.6 °F 1023.9 in West 8.0 mph 19.3 mph 97 % 0.0 in
04:42 9.1 °F 8.6 °F 1023.9 in WSW 11.3 mph 19.3 mph 97 % 0.0 in
04:47 9.1 °F 8.6 °F 1023.6 in West 12.9 mph 17.7 mph 97 % 0.0 in
04:52 9.1 °F 8.6 °F 1023.6 in West 6.4 mph 17.7 mph 97 % 0.0 in
04:57 9.1 °F 8.6 °F 1023.9 in West 9.7 mph 17.7 mph 97 % 0.0 in
05:02 9.1 °F 8.6 °F 1023.9 in WSW 16.1 mph 17.7 mph 97 % 0.0 in
05:12 9.1 °F 8.6 °F 1023.6 in SW 9.7 mph 17.7 mph 97 % 0.0 in
05:17 9.1 °F 8.6 °F 1023.6 in SW 9.7 mph 17.7 mph 97 % 0.0 in
05:22 9.2 °F 8.7 °F 1023.6 in WSW 9.7 mph 17.7 mph 97 % 0.0 in
05:32 9.2 °F 8.7 °F 1023.6 in WSW 19.3 mph 19.3 mph 97 % 0.0 in
05:42 9.2 °F 8.7 °F 1023.9 in WSW 11.3 mph 19.3 mph 97 % 0.0 in
05:52 9.2 °F 8.7 °F 1023.9 in WSW 14.5 mph 19.3 mph 97 % 0.0 in
06:02 9.2 °F 8.7 °F 1023.9 in WSW 8.0 mph 17.7 mph 97 % 0.0 in
06:12 9.2 °F 8.7 °F 1023.9 in WSW 11.3 mph 20.9 mph 97 % 0.0 in
06:17 9.2 °F 8.7 °F 1023.9 in WNW 3.2 mph 17.7 mph 97 % 0.0 in
06:22 9.1 °F 8.6 °F 1023.9 in West 11.3 mph 17.7 mph 97 % 0.0 in
06:32 9.1 °F 8.6 °F 1023.6 in WSW 12.9 mph 17.7 mph 97 % 0.0 in
06:42 9.1 °F 8.6 °F 1023.6 in SW 11.3 mph 20.9 mph 97 % 0.0 in
06:47 9.1 °F 8.6 °F 1023.9 in WNW 8.0 mph 20.9 mph 97 % 0.0 in
06:52 9.1 °F 8.6 °F 1023.9 in WSW 8.0 mph 20.9 mph 97 % 0.0 in
07:02 9.1 °F 8.6 °F 1023.9 in WNW 9.7 mph 19.3 mph 97 % 0.0 in
07:12 9.2 °F 8.7 °F 1023.9 in West 8.0 mph 16.1 mph 97 % 0.0 in
07:17 9.2 °F 8.7 °F 1023.9 in WSW 11.3 mph 17.7 mph 97 % 0.0 in
07:22 9.2 °F 8.7 °F 1023.9 in WSW 14.5 mph 17.7 mph 97 % 0.0 in
07:32 9.2 °F 8.7 °F 1023.9 in West 9.7 mph 17.7 mph 97 % 0.0 in
07:42 9.3 °F 8.8 °F 1024.3 in West 9.7 mph 22.5 mph 97 % 0.0 in
07:52 9.3 °F 8.8 °F 1024.3 in WSW 14.5 mph 22.5 mph 97 % 0.0 in
07:57 9.3 °F 8.8 °F 1024.3 in West 8.0 mph 19.3 mph 97 % 0.0 in
08:02 9.3 °F 8.8 °F 1024.3 in West 8.0 mph 19.3 mph 97 % 0.0 in
08:12 9.3 °F 8.8 °F 1024.3 in West 6.4 mph 17.7 mph 97 % 0.0 in
08:17 9.3 °F 8.8 °F 1024.6 in WSW 9.7 mph 17.7 mph 97 % 0.0 in
08:22 9.3 °F 8.8 °F 1024.6 in West 6.4 mph 17.7 mph 97 % 0.0 in
08:32 9.4 °F 8.9 °F 1024.6 in West 8.0 mph 16.1 mph 97 % 0.0 in
08:42 9.4 °F 8.9 °F 1024.6 in WSW 4.8 mph 16.1 mph 97 % 0.0 in
08:47 9.5 °F 9.0 °F 1024.6 in WNW 4.8 mph 16.1 mph 97 % 0.0 in
08:52 9.6 °F 9.1 °F 1024.6 in West 4.8 mph 16.1 mph 97 % 0.0 in
08:57 9.6 °F 9.1 °F 1024.6 in West 8.0 mph 14.5 mph 97 % 0.0 in
09:02 9.7 °F 9.2 °F 1024.6 in WSW 17.7 mph 17.7 mph 97 % 0.0 in
09:12 9.8 °F 9.2 °F 1024.6 in West 11.3 mph 17.7 mph 96 % 0.0 in
09:17 9.9 °F 9.3 °F 1024.6 in West 8.0 mph 17.7 mph 96 % 0.0 in
09:22 9.9 °F 9.3 °F 1024.6 in WSW 8.0 mph 17.7 mph 96 % 0.0 in
09:32 10.0 °F 9.2 °F 1024.6 in West 12.9 mph 20.9 mph 95 % 0.0 in
09:42 10.0 °F 9.2 °F 1024.6 in West 11.3 mph 20.9 mph 95 % 0.0 in
09:52 9.9 °F 9.3 °F 1024.6 in West 6.4 mph 22.5 mph 96 % 0.0 in
09:57 9.9 °F 9.3 °F 1024.3 in WSW 12.9 mph 22.5 mph 96 % 0.0 in
10:07 10.0 °F 9.4 °F 1024.3 in West 11.3 mph 20.9 mph 96 % 0.0 in
10:12 10.1 °F 9.5 °F 1024.6 in WSW 9.7 mph 20.9 mph 96 % 0.0 in
10:17 10.1 °F 9.5 °F 1024.6 in NW 4.8 mph 22.5 mph 96 % 0.0 in
10:22 10.1 °F 9.5 °F 1024.6 in West 9.7 mph 22.5 mph 96 % 0.0 in
10:32 10.2 °F 9.6 °F 1024.9 in West 6.4 mph 22.5 mph 96 % 0.0 in
10:37 10.2 °F 9.6 °F 1024.6 in WNW 6.4 mph 19.3 mph 96 % 0.0 in
10:42 10.3 °F 9.7 °F 1024.6 in WNW 11.3 mph 19.3 mph 96 % 0.0 in
10:47 10.3 °F 9.5 °F 1024.6 in WNW 8.0 mph 17.7 mph 95 % 0.0 in
10:52 10.4 °F 9.6 °F 1024.6 in WSW 4.8 mph 17.7 mph 95 % 0.0 in
11:02 10.5 °F 9.7 °F 1024.6 in West 14.5 mph 19.3 mph 95 % 0.0 in
11:12 10.6 °F 9.7 °F 1024.9 in West 8.0 mph 22.5 mph 94 % 0.0 in
11:17 10.6 °F 9.7 °F 1024.9 in WSW 8.0 mph 20.9 mph 94 % 0.0 in
11:22 10.7 °F 9.8 °F 1024.9 in West 12.9 mph 20.9 mph 94 % 0.0 in
11:27 10.7 °F 9.8 °F 1024.9 in WNW 11.3 mph 20.9 mph 94 % 0.0 in
11:32 10.7 °F 9.8 °F 1024.9 in West 9.7 mph 20.9 mph 94 % 0.0 in
11:37 10.6 °F 9.5 °F 1024.9 in WNW 9.7 mph 20.9 mph 93 % 0.0 in
11:42 10.7 °F 9.6 °F 1024.9 in WNW 16.1 mph 20.9 mph 93 % 0.0 in
11:47 10.7 °F 9.6 °F 1024.9 in WNW 9.7 mph 22.5 mph 93 % 0.0 in
11:52 10.6 °F 9.7 °F 1024.9 in WSW 3.2 mph 22.5 mph 94 % 0.0 in
11:57 10.6 °F 9.7 °F 1024.9 in West 4.8 mph 17.7 mph 94 % 0.0 in
12:02 10.6 °F 9.7 °F 1024.9 in WNW 8.0 mph 17.7 mph 94 % 0.0 in
12:12 10.7 °F 9.8 °F 1024.9 in West 3.2 mph 16.1 mph 94 % 0.0 in
12:17 10.8 °F 9.7 °F 1024.9 in WNW 4.8 mph 12.9 mph 93 % 0.0 in
12:22 10.8 °F 9.6 °F 1024.9 in SW 3.2 mph 11.3 mph 92 % 0.0 in
12:27 10.9 °F 9.7 °F 1024.9 in West 8.0 mph 11.3 mph 92 % 0.0 in
12:32 10.9 °F 9.7 °F 1024.9 in WNW 8.0 mph 19.3 mph 92 % 0.0 in
12:37 10.9 °F 9.7 °F 1024.9 in WSW 8.0 mph 19.3 mph 92 % 0.0 in
12:42 10.9 °F 9.7 °F 1024.9 in West 3.2 mph 14.5 mph 92 % 0.0 in
12:52 10.8 °F 9.7 °F 1024.9 in WNW 6.4 mph 12.9 mph 93 % 0.0 in
12:57 10.8 °F 9.7 °F 1024.6 in WNW 3.2 mph 24.1 mph 93 % 0.0 in
13:02 10.8 °F 9.7 °F 1024.6 in NW 8.0 mph 24.1 mph 93 % 0.0 in
13:07 10.9 °F 9.8 °F 1024.6 in West 4.8 mph 19.3 mph 93 % 0.0 in
13:12 10.9 °F 9.8 °F 1024.6 in West 6.4 mph 19.3 mph 93 % 0.0 in
13:22 10.9 °F 9.8 °F 1024.6 in WNW 11.3 mph 19.3 mph 93 % 0.0 in
13:27 10.9 °F 9.7 °F 1024.3 in WNW 4.8 mph 19.3 mph 92 % 0.0 in
13:32 10.9 °F 9.7 °F 1024.3 in WSW 12.9 mph 19.3 mph 92 % 0.0 in
13:37 11.1 °F 9.8 °F 1024.3 in WNW 9.7 mph 19.3 mph 92 % 0.0 in
13:42 11.1 °F 9.8 °F 1024.3 in West 8.0 mph 19.3 mph 92 % 0.0 in
13:47 11.1 °F 9.8 °F 1024.3 in WSW 11.3 mph 20.9 mph 92 % 0.0 in
13:52 11.1 °F 9.8 °F 1024.3 in WSW 17.7 mph 20.9 mph 92 % 0.0 in
13:57 11.1 °F 9.8 °F 1024.3 in West 12.9 mph 24.1 mph 92 % 0.0 in
14:02 11.1 °F 9.8 °F 1024.3 in West 16.1 mph 24.1 mph 92 % 0.0 in
14:07 11.1 °F 9.8 °F 1023.9 in NW 12.9 mph 27.4 mph 92 % 0.0 in
14:12 11.1 °F 9.8 °F 1023.9 in WNW 11.3 mph 27.4 mph 92 % 0.0 in
14:17 11.2 °F 9.9 °F 1023.9 in SW 11.3 mph 27.4 mph 92 % 0.0 in
14:22 11.2 °F 9.9 °F 1023.9 in WSW 14.5 mph 27.4 mph 92 % 0.0 in
14:27 11.2 °F 9.9 °F 1023.9 in WSW 14.5 mph 24.1 mph 92 % 0.0 in
14:32 11.2 °F 9.9 °F 1023.9 in West 8.0 mph 24.1 mph 92 % 0.0 in
14:37 11.2 °F 9.9 °F 1023.9 in West 9.7 mph 20.9 mph 92 % 0.0 in
14:42 11.2 °F 9.9 °F 1023.9 in WSW 12.9 mph 20.9 mph 92 % 0.0 in
14:47 11.2 °F 9.8 °F 1023.9 in West 8.0 mph 22.5 mph 91 % 0.0 in
14:52 11.2 °F 9.9 °F 1023.9 in WSW 16.1 mph 22.5 mph 92 % 0.0 in
14:57 11.2 °F 9.8 °F 1023.9 in WSW 12.9 mph 19.3 mph 91 % 0.0 in
15:02 11.2 °F 9.9 °F 1023.9 in West 9.7 mph 19.3 mph 92 % 0.0 in
15:07 11.1 °F 9.8 °F 1023.9 in WSW 16.1 mph 20.9 mph 92 % 0.0 in
15:12 11.1 °F 9.8 °F 1023.9 in West 9.7 mph 20.9 mph 92 % 0.0 in
15:17 11.1 °F 9.8 °F 1023.6 in West 6.4 mph 19.3 mph 92 % 0.0 in
15:22 11.1 °F 9.8 °F 1023.9 in West 8.0 mph 19.3 mph 92 % 0.0 in
15:32 11.1 °F 9.8 °F 1023.9 in WSW 11.3 mph 20.9 mph 92 % 0.0 in
15:37 11.2 °F 9.9 °F 1023.9 in West 6.4 mph 16.1 mph 92 % 0.0 in
15:42 11.2 °F 9.9 °F 1023.6 in WSW 14.5 mph 16.1 mph 92 % 0.0 in
15:47 11.1 °F 9.8 °F 1023.6 in WSW 8.0 mph 16.1 mph 92 % 0.0 in
15:52 11.2 °F 9.9 °F 1023.6 in West 9.7 mph 16.1 mph 92 % 0.0 in
15:57 11.2 °F 9.9 °F 1023.6 in WSW 11.3 mph 14.5 mph 92 % 0.0 in
16:02 11.2 °F 9.9 °F 1023.6 in West 12.9 mph 14.5 mph 92 % 0.0 in
16:07 11.2 °F 9.9 °F 1023.6 in West 4.8 mph 16.1 mph 92 % 0.0 in
16:12 11.2 °F 9.9 °F 1023.6 in West 8.0 mph 16.1 mph 92 % 0.0 in
16:17 11.1 °F 9.8 °F 1023.6 in West 9.7 mph 16.1 mph 92 % 0.0 in
16:22 11.1 °F 9.8 °F 1023.6 in WSW 9.7 mph 16.1 mph 92 % 0.0 in
16:32 11.1 °F 9.8 °F 1023.6 in WSW 11.3 mph 17.7 mph 92 % 0.0 in
16:37 11.1 °F 9.8 °F 1023.6 in West 9.7 mph 17.7 mph 92 % 0.0 in
16:42 11.0 °F 9.8 °F 1023.2 in West 8.0 mph 17.7 mph 92 % 0.0 in
16:47 11.0 °F 9.8 °F 1023.2 in WNW 6.4 mph 17.7 mph 92 % 0.0 in
16:52 11.0 °F 9.6 °F 1023.2 in WNW 6.4 mph 17.7 mph 91 % 0.0 in
16:57 11.0 °F 9.6 °F 1023.6 in WSW 11.3 mph 17.7 mph 91 % 0.0 in
17:02 11.0 °F 9.6 °F 1023.6 in West 9.7 mph 17.7 mph 91 % 0.0 in
17:07 10.9 °F 9.5 °F 1023.6 in WSW 9.7 mph 17.7 mph 91 % 0.0 in
17:12 10.9 °F 9.5 °F 1023.2 in West 3.2 mph 17.7 mph 91 % 0.0 in
17:17 10.9 °F 9.5 °F 1023.2 in West 4.8 mph 14.5 mph 91 % 0.0 in
17:22 10.9 °F 9.5 °F 1023.2 in West 3.2 mph 14.5 mph 91 % 0.0 in
17:32 10.9 °F 9.5 °F 1023.2 in West 4.8 mph 14.5 mph 91 % 0.0 in
17:37 10.8 °F 9.4 °F 1023.2 in WSW 9.7 mph 14.5 mph 91 % 0.0 in
17:42 10.8 °F 9.4 °F 1023.2 in West 8.0 mph 14.5 mph 91 % 0.0 in
17:52 10.7 °F 9.5 °F 1023.2 in WSW 4.8 mph 14.5 mph 92 % 0.0 in
17:57 10.7 °F 9.3 °F 1023.2 in West 4.8 mph 14.5 mph 91 % 0.0 in
18:02 10.7 °F 9.3 °F 1023.2 in West 8.0 mph 14.5 mph 91 % 0.0 in
18:07 10.6 °F 9.2 °F 1023.2 in WSW 11.3 mph 12.9 mph 91 % 0.0 in
18:12 10.6 °F 9.4 °F 1023.2 in WSW 3.2 mph 12.9 mph 92 % 0.0 in
18:17 10.6 °F 9.4 °F 1023.2 in WSW 1.6 mph 12.9 mph 92 % 0.0 in
18:22 10.6 °F 9.4 °F 1023.2 in West 6.4 mph 12.9 mph 92 % 0.0 in
18:27 10.5 °F 9.3 °F 1023.6 in West 4.8 mph 12.9 mph 92 % 0.0 in
18:32 10.4 °F 9.2 °F 1023.6 in West 4.8 mph 9.7 mph 92 % 0.0 in
18:37 10.4 °F 9.3 °F 1023.6 in West 6.4 mph 9.7 mph 93 % 0.0 in
18:42 10.3 °F 9.2 °F 1023.6 in WNW 3.2 mph 8.0 mph 93 % 0.0 in
18:47 10.3 °F 9.2 °F 1023.6 in WNW 4.8 mph 8.0 mph 93 % 0.0 in
18:57 10.2 °F 9.1 °F 1023.6 in West 3.2 mph 8.0 mph 93 % 0.0 in
19:02 10.2 °F 9.1 °F 1023.6 in West 3.2 mph 8.0 mph 93 % 0.0 in
19:07 10.2 °F 9.1 °F 1023.6 in West 3.2 mph 8.0 mph 93 % 0.0 in
19:12 10.2 °F 9.1 °F 1023.6 in WSW 6.4 mph 8.0 mph 93 % 0.0 in
19:17 10.1 °F 9.2 °F 1023.6 in WSW 4.8 mph 8.0 mph 94 % 0.0 in
19:22 10.1 °F 9.2 °F 1023.6 in West 4.8 mph 8.0 mph 94 % 0.0 in
19:27 10.1 °F 9.2 °F 1023.6 in SW 3.2 mph 11.3 mph 94 % 0.0 in
19:32 10.0 °F 9.1 °F 1023.6 in West 4.8 mph 11.3 mph 94 % 0.0 in
19:37 9.9 °F 9.0 °F 1023.6 in WSW 6.4 mph 9.7 mph 94 % 0.0 in
19:42 9.9 °F 9.1 °F 1023.6 in WNW 3.2 mph 9.7 mph 95 % 0.0 in
19:47 9.9 °F 9.1 °F 1023.6 in West 4.8 mph 9.7 mph 95 % 0.0 in
19:52 9.9 °F 9.1 °F 1023.6 in West 4.8 mph 9.7 mph 95 % 0.0 in
19:57 9.8 °F 9.0 °F 1023.2 in West 3.2 mph 9.7 mph 95 % 0.0 in
20:02 9.8 °F 9.0 °F 1023.6 in West 4.8 mph 9.7 mph 95 % 0.0 in
20:12 9.8 °F 9.0 °F 1023.6 in WSW 4.8 mph 11.3 mph 95 % 0.0 in
20:17 9.8 °F 9.0 °F 1023.6 in WSW 6.4 mph 9.7 mph 95 % 0.0 in
20:22 9.7 °F 8.9 °F 1023.6 in West 3.2 mph 9.7 mph 95 % 0.0 in
20:27 9.7 °F 8.9 °F 1023.6 in West 4.8 mph 6.4 mph 95 % 0.0 in
20:32 9.8 °F 9.0 °F 1023.6 in SW 4.8 mph 6.4 mph 95 % 0.0 in
20:37 9.8 °F 8.9 °F 1023.6 in SSW 1.6 mph 12.9 mph 94 % 0.0 in
20:42 9.8 °F 8.9 °F 1023.6 in WSW 6.4 mph 12.9 mph 94 % 0.0 in
20:47 9.8 °F 8.9 °F 1023.6 in SW 3.2 mph 12.9 mph 94 % 0.0 in
20:52 9.8 °F 8.9 °F 1023.6 in SW 3.2 mph 12.9 mph 94 % 0.0 in
20:57 9.8 °F 8.9 °F 1023.6 in WSW 8.0 mph 12.9 mph 94 % 0.0 in
21:02 9.7 °F 8.8 °F 1023.6 in WSW 4.8 mph 12.9 mph 94 % 0.0 in
21:07 9.7 °F 8.8 °F 1023.6 in WSW 6.4 mph 12.9 mph 94 % 0.0 in
21:12 9.7 °F 8.8 °F 1023.6 in WSW 8.0 mph 12.9 mph 94 % 0.0 in
21:17 9.7 °F 8.8 °F 1023.6 in SW 4.8 mph 14.5 mph 94 % 0.0 in
21:22 9.7 °F 8.8 °F 1023.6 in SSW 4.8 mph 14.5 mph 94 % 0.0 in
21:27 9.6 °F 8.8 °F 1023.2 in WSW 9.7 mph 14.5 mph 95 % 0.0 in
21:32 9.6 °F 8.8 °F 1023.2 in WSW 6.4 mph 14.5 mph 95 % 0.0 in
21:37 9.6 °F 8.7 °F 1023.2 in WSW 8.0 mph 14.5 mph 94 % 0.0 in
21:42 9.6 °F 8.7 °F 1023.2 in SW 4.8 mph 14.5 mph 94 % 0.0 in
21:47 9.6 °F 8.7 °F 1023.2 in WSW 6.4 mph 12.9 mph 94 % 0.0 in
21:52 9.6 °F 8.7 °F 1023.2 in WSW 3.2 mph 12.9 mph 94 % 0.0 in
21:57 9.6 °F 8.7 °F 1023.2 in West 8.0 mph 9.7 mph 94 % 0.0 in
22:02 9.6 °F 8.7 °F 1023.2 in WSW 9.7 mph 9.7 mph 94 % 0.0 in
22:07 9.6 °F 8.7 °F 1023.2 in West 8.0 mph 11.3 mph 94 % 0.0 in
22:12 9.6 °F 8.7 °F 1023.2 in WSW 9.7 mph 11.3 mph 94 % 0.0 in
22:17 9.6 °F 8.7 °F 1023.2 in WSW 3.2 mph 14.5 mph 94 % 0.0 in
22:22 9.6 °F 8.7 °F 1023.2 in West 4.8 mph 14.5 mph 94 % 0.0 in
22:27 9.6 °F 8.7 °F 1023.2 in West 3.2 mph 16.1 mph 94 % 0.0 in
22:32 9.6 °F 8.7 °F 1023.2 in West 4.8 mph 16.1 mph 94 % 0.0 in
22:37 9.6 °F 8.7 °F 1023.2 in SSW 6.4 mph 17.7 mph 94 % 0.0 in
22:42 9.6 °F 8.7 °F 1023.2 in SW 4.8 mph 17.7 mph 94 % 0.0 in
22:47 9.5 °F 8.6 °F 1023.2 in West 9.7 mph 14.5 mph 94 % 0.0 in
22:52 9.5 °F 8.6 °F 1023.2 in WSW 11.3 mph 14.5 mph 94 % 0.0 in
22:57 9.5 °F 8.6 °F 1023.2 in SW 9.7 mph 20.9 mph 94 % 0.0 in
23:02 9.4 °F 8.5 °F 1023.2 in West 8.0 mph 20.9 mph 94 % 0.0 in
23:07 9.4 °F 8.5 °F 1023.2 in WSW 4.8 mph 20.9 mph 94 % 0.0 in
23:12 9.4 °F 8.5 °F 1023.2 in West 11.3 mph 20.9 mph 94 % 0.0 in
23:17 9.4 °F 8.5 °F 1023.2 in WSW 6.4 mph 16.1 mph 94 % 0.0 in
23:22 9.4 °F 8.5 °F 1023.2 in WSW 6.4 mph 16.1 mph 94 % 0.0 in
23:27 9.4 °F 8.5 °F 1023.2 in SW 11.3 mph 16.1 mph 94 % 0.0 in
23:32 9.4 °F 8.5 °F 1023.2 in West 9.7 mph 16.1 mph 94 % 0.0 in
23:37 9.4 °F 8.5 °F 1023.2 in WSW 11.3 mph 16.1 mph 94 % 0.0 in
23:42 9.4 °F 8.5 °F 1023.2 in Calm   16.1 mph 94 % 0.0 in
23:47 9.4 °F 8.5 °F 1023.2 in WSW 8.0 mph 14.5 mph 94 % 0.0 in
23:52 9.4 °F 8.5 °F 1023.2 in SW 9.7 mph 14.5 mph 94 % 0.0 in
23:57 9.4 °F 8.5 °F 1023.2 in WSW 4.8 mph 16.1 mph 94 % 0.0 in
Meteo18
Compliments of Weather Underground - 4 mb

Script developed by  Jim McMurry - jmcmurry@mwt.net Adapted for the template by  Wim van der Kuil - Leuven-Template.eu

You find our weather info also at:

European Weather Network

Weather Underground

Equipment we use:

Weather-station
Davis Vue

Weather-program
Meteobridge

Weather-server
Raspberry PI 2 B+

Provider
1 and 1

Davis Vue

Meteobridge

Raspberry PI 2 B+

1 and 1